Location: B�rgermoos
(47.6500°N, 9.0667°E)
Time: 22:05:33
(UTC+00:00)

Tiros 1 - Pass Details

Date: 08 August 2021
Orbit: 630 x 663 km, 48.4° (Epoch: 19 September)

Event Time Altitude Azimuth Distance (km) Brightness Sun altitude
Rises 19:22:51 0° 285° (WNW) 2,986 12.4 -6.1°
Reaches altitude 10° 19:25:14 10° 282° (WNW) 2,068 11.1 -6.4°
Maximum altitude 19:29:56 60° 203° (SSW) 745 7.4 -7.1°
Drops below altitude 10° 19:34:34 10° 124° (SE) 2,040 9.0 -7.7°
Enters shadow 19:34:38 10° 124° (SE) 2,066 9.0 -7.7°
Sets 19:36:54 0° 121° (ESE) 2,942 - -8.0°
